QPF
0.08 0.08 0.09 0.08 0.05 0.04 0.06 0.08 0.08 0.08 0.07 0.06 0.04 0.04 0.04 0.04 0.05 0.07 0.08 0.08 0.08 0.10 0.11 0.11 0.12 0.13 0.13 0.11 0.11 0.11 0.09 0.09 0.10 0.10 0.08 0.11 0.11 0.08 0.08 0.08 0.08 0.06 0.04
0.06 0.06 0.07 0.07 0.05 0.05 0.06 0.06 0.05 0.05 0.04 0.04 0.05 0.05 0.05 0.05 0.05 0.04 0.07 0.07 0.06 0.08 0.09 0.09 0.10 0.11 0.13 0.14 0.14 0.13 0.10 0.11 0.08 0.07 0.08 0.09 0.10 0.09 0.08 0.09 0.09 0.08 0.06
0.04 0.05 0.06 0.05 0.04 0.04 0.04 0.05 0.04 0.03 0.03 0.03 0.04 0.04 0.04 0.04 0.03 0.03 0.05 0.06 0.06 0.08 0.09 0.09 0.10 0.13 0.15 0.16 0.16 0.13 0.08 0.06 0.05 0.04 0.06 0.06 0.08 0.10 0.09 0.09 0.08 0.07 0.08
0.03 0.04 0.04 0.03 0.02 0.02 0.03 0.05 0.04 0.04 0.05 0.04 0.04 0.03 0.03 0.02 0.02 0.02 0.03 0.05 0.07 0.08 0.07 0.07 0.08 0.11 0.17 0.15 0.11 0.09 0.08 0.07 0.05 0.05 0.06 0.07 0.08 0.09 0.09 0.09 0.11 0.09 0.07
0.03 0.04 0.04 0.03 0.02 0.03 0.03 0.02 0.04 0.05 0.06 0.05 0.03 0.03 0.02 0.03 0.03 0.02 0.03 0.04 0.07 0.07 0.08 0.05 0.05 0.09 0.19 0.15 0.13 0.10 0.11 0.14 0.11 0.08 0.08 0.08 0.08 0.07 0.07 0.07 0.08 0.10 0.08
0.02 0.03 0.03 0.03 0.03 0.04 0.05 0.04 0.06 0.05 0.04 0.04 0.03 0.03 0.02 0.02 0.02 0.02 0.03 0.04 0.05 0.05 0.06 0.04 0.05 0.05 0.06 0.09 0.10 0.12 0.13 0.17 0.18 0.16 0.13 0.12 0.11 0.08 0.08 0.07 0.07 0.09 0.09
0.02 0.04 0.02 0.03 0.03 0.04 0.05 0.04 0.04 0.04 0.04 0.03 0.04 0.03 0.02 0.02 0.02 0.02 0.02 0.03 0.04 0.05 0.05 0.05 0.05 0.05 0.04 0.04 0.05 0.07 0.09 0.12 0.15 0.17 0.16 0.14 0.13 0.10 0.08 0.08 0.08 0.09 0.10
0.02 0.03 0.03 0.04 0.04 0.06 0.06 0.06 0.06 0.06 0.05 0.05 0.06 0.06 0.05 0.04 0.03 0.02 0.02 0.03 0.04 0.06 0.05 0.05 0.05 0.05 0.05 0.05 0.05 0.04 0.05 0.07 0.11 0.14 0.15 0.14 0.13 0.12 0.11 0.11 0.10 0.08 0.09
0.02 0.02 0.03 0.05 0.06 0.06 0.06 0.06 0.06 0.07 0.08 0.06 0.05 0.07 0.08 0.08 0.06 0.04 0.03 0.04 0.04 0.05 0.05 0.04 0.05 0.06 0.05 0.06 0.06 0.05 0.05 0.05 0.08 0.10 0.11 0.09 0.10 0.10 0.09 0.10 0.09 0.09 0.10
0.02 0.03 0.05 0.06 0.08 0.07 0.07 0.05 0.06 0.09 0.09 0.07 0.05 0.06 0.07 0.08 0.07 0.06 0.05 0.04 0.04 0.04 0.05 0.04 0.05 0.06 0.06 0.06 0.06 0.05 0.04 0.03 0.04 0.06 0.10 0.11 0.11 0.10 0.11 0.13 0.14 0.14 0.13
0.03 0.05 0.08 0.09 0.09 0.08 0.07 0.07 0.07 0.07 0.08 0.08 0.07 0.08 0.09 0.07 0.06 0.07 0.07 0.06 0.04 0.03 0.03 0.03 0.03 0.04 0.05 0.06 0.06 0.05 0.03 0.03 0.04 0.07 0.12 0.14 0.12 0.10 0.10 0.12 0.13 0.14 0.14
0.06 0.08 0.08 0.09 0.12 0.12 0.10 0.09 0.08 0.07 0.06 0.06 0.08 0.07 0.07 0.07 0.07 0.09 0.08 0.06 0.04 0.04 0.02 0.02 0.02 0.02 0.03 0.04 0.04 0.04 0.03 0.04 0.04 0.06 0.08 0.14 0.12 0.10 0.10 0.10 0.12 0.15 0.16
0.07 0.09 0.08 0.10 0.11 0.11 0.09 0.07 0.05 0.06 0.06 0.05 0.06 0.06 0.06 0.07 0.07 0.07 0.07 0.06 0.04 0.03 0.02 0.01 0.02 0.01 0.01 0.02 0.03 0.03 0.04 0.06 0.06 0.06 0.06 0.06 0.07 0.07 0.08 0.10 0.12 0.15 0.16
0.11 0.11 0.07 0.07 0.06 0.04 0.04 0.05 0.04 0.04 0.05 0.04 0.04 0.06 0.07 0.06 0.06 0.05 0.06 0.08 0.06 0.05 0.04 0.03 0.04 0.04 0.03 0.03 0.03 0.03 0.05 0.05 0.05 0.05 0.05 0.04 0.03 0.04 0.05 0.07 0.09 0.10 0.13
0.10 0.09 0.05 0.04 0.04 0.03 0.03 0.04 0.04 0.03 0.03 0.03 0.03 0.05 0.06 0.06 0.05 0.05 0.05 0.06 0.08 0.08 0.07 0.05 0.05 0.05 0.04 0.03 0.03 0.03 0.04 0.04 0.03 0.02 0.02 0.01 0.02 0.02 0.02 0.02 0.03 0.03 0.05
0.08 0.04 0.02 0.01 0.01 0.01 0.02 0.03 0.03 0.03 0.02 0.03 0.03 0.04 0.04 0.03 0.03 0.03 0.04 0.05 0.06 0.07 0.06 0.06 0.06 0.06 0.05 0.05 0.05 0.03 0.03 0.03 0.02 0.02 0.02 0.03 0.04 0.04 0.03 0.02 0.02 0.02 0.02
0.03 0.02 0.01 0.01 0.01 0.01 0.02 0.02 0.02 0.02 0.02 0.02 0.02 0.03 0.03 0.02 0.02 0.03 0.04 0.04 0.04 0.04 0.05 0.05 0.05 0.06 0.07 0.07 0.05 0.04 0.04 0.02 0.02 0.02 0.02 0.03 0.04 0.04 0.03 0.03 0.03 0.03 0.02
0.01 0.00 0.00 0.01 0.01 0.01 0.02 0.02 0.02 0.02 0.02 0.02 0.02 0.03 0.03 0.03 0.02 0.02 0.03 0.03 0.03 0.03 0.04 0.05 0.07 0.07 0.07 0.05 0.04 0.04 0.03 0.03 0.02 0.02 0.02 0.03 0.03 0.03 0.02 0.02 0.02 0.02 0.02
0.01 0.01 0.01 0.01 0.01 0.01 0.01 0.02 0.02 0.03 0.02 0.03 0.03 0.04 0.03 0.02 0.02 0.03 0.04 0.05 0.05 0.04 0.04 0.04 0.04 0.04 0.03 0.03 0.03 0.02 0.02 0.01 0.01 0.01 0.02 0.03 0.03 0.03 0.02 0.02 0.01 0.01 0.02
0.01 0.01 0.01 0.01 0.02 0.01 0.01 0.01 0.03 0.04 0.03 0.03 0.03 0.03 0.02 0.02 0.01 0.02 0.03 0.04 0.04 0.03 0.02 0.02 0.02 0.02 0.02 0.02 0.02 0.01 0.01 0.02 0.01 0.01 0.02 0.02 0.03 0.03 0.02 0.02 0.01 0.01 0.01
0.01 0.01 0.02 0.01 0.01 0.01 0.01 0.02 0.03 0.04 0.04 0.03 0.04 0.04 0.03 0.02 0.02 0.02 0.02 0.03 0.03 0.03 0.02 0.02 0.02 0.03 0.03 0.02 0.01 0.01 0.01 0.02 0.02 0.02 0.02 0.02 0.02 0.03 0.03 0.03 0.03 0.03 0.03
0.02 0.02 0.02 0.01 0.01 0.01 0.01 0.01 0.01 0.02 0.03 0.03 0.03 0.04 0.03 0.03 0.03 0.04 0.04 0.04 0.04 0.02 0.02 0.02 0.03 0.03 0.02 0.02 0.01 0.02 0.02 0.02 0.02 0.02 0.02 0.02 0.02 0.03 0.04 0.04 0.04 0.04 0.03
0.02 0.02 0.01 0.01 0.01 0.01 0.01 0.00 0.01 0.01 0.01 0.02 0.02 0.03 0.02 0.03 0.03 0.03 0.04 0.03 0.03 0.01 0.01 0.02 0.03 0.03 0.02 0.01 0.01 0.02 0.02 0.02 0.02 0.02 0.02 0.02 0.02 0.02 0.03 0.03 0.03 0.03 0.03
0.03 0.02 0.01 0.01 0.01 0.01 0.01 0.00 0.00 0.00 0.00 0.01 0.01 0.02 0.02 0.02 0.02 0.02 0.03 0.02 0.02 0.01 0.01 0.01 0.01 0.01 0.01 0.01 0.01 0.01 0.01 0.01 0.01 0.01 0.01 0.01 0.01 0.01 0.02 0.02 0.02 0.03 0.04
0.03 0.02 0.02 0.01 0.01 0.01 0.00 0.00 0.00 0.00 0.00 0.00 0.01 0.02 0.02 0.02 0.02 0.02 0.02 0.02 0.02 0.01 0.01 0.00 0.00 0.00 0.00 0.01 0.01 0.00 0.01 0.01 0.01 0.00 0.00 0.01 0.01 0.02 0.03 0.03 0.03 0.04 0.03
0.04 0.03 0.02 0.01 0.01 0.00 0.00 0.00 0.00 0.01 0.01 0.01 0.02 0.03 0.03 0.03 0.03 0.03 0.02 0.02 0.02 0.01 0.01 0.00 0.00 0.00 0.01 0.01 0.00 0.00 0.01 0.01 0.01 0.01 0.01 0.01 0.02 0.02 0.03 0.03 0.03 0.03 0.03
MSLP
1012.41 1012.50 1012.57 1012.62 1012.68 1012.76 1012.88 1013.04 1013.23 1013.43 1013.62 1013.80 1013.97 1014.14 1014.35 1014.62 1014.99 1015.45 1016.00 1016.59 1017.19 1017.73 1018.20 1018.55 1018.79 1018.96 1019.08 1019.20 1019.35 1019.55 1019.80 1020.09 1020.39 1020.69 1020.96 1021.19 1021.39 1021.55 1021.70 1021.83 1021.93 1022.01 1022.06
1012.82 1012.93 1013.00 1013.05 1013.09 1013.15 1013.24 1013.38 1013.55 1013.74 1013.95 1014.15 1014.33 1014.52 1014.73 1014.99 1015.32 1015.72 1016.21 1016.74 1017.29 1017.81 1018.27 1018.64 1018.92 1019.13 1019.29 1019.43 1019.59 1019.78 1020.01 1020.27 1020.54 1020.81 1021.06 1021.29 1021.48 1021.65 1021.79 1021.91 1022.00 1022.07 1022.10
1013.27 1013.38 1013.45 1013.49 1013.51 1013.54 1013.60 1013.71 1013.86 1014.05 1014.26 1014.47 1014.68 1014.88 1015.09 1015.33 1015.61 1015.96 1016.36 1016.81 1017.29 1017.76 1018.19 1018.56 1018.87 1019.11 1019.32 1019.49 1019.68 1019.87 1020.09 1020.33 1020.58 1020.83 1021.07 1021.28 1021.47 1021.63 1021.77 1021.88 1021.97 1022.03 1022.07
1013.68 1013.80 1013.88 1013.91 1013.92 1013.93 1013.97 1014.05 1014.18 1014.36 1014.58 1014.80 1015.02 1015.23 1015.44 1015.65 1015.89 1016.15 1016.46 1016.81 1017.19 1017.58 1017.96 1018.31 1018.62 1018.90 1019.14 1019.36 1019.59 1019.81 1020.04 1020.28 1020.52 1020.75 1020.97 1021.17 1021.35 1021.50 1021.63 1021.74 1021.83 1021.89 1021.93
1014.02 1014.15 1014.23 1014.28 1014.29 1014.30 1014.33 1014.40 1014.52 1014.69 1014.90 1015.13 1015.36 1015.58 1015.78 1015.96 1016.14 1016.32 1016.53 1016.76 1017.02 1017.30 1017.60 1017.91 1018.21 1018.50 1018.78 1019.05 1019.32 1019.58 1019.84 1020.09 1020.34 1020.57 1020.78 1020.97 1021.14 1021.28 1021.40 1021.50 1021.58 1021.65 1021.70
1014.22 1014.36 1014.47 1014.54 1014.59 1014.62 1014.66 1014.73 1014.84 1015.01 1015.22 1015.45 1015.67 1015.89 1016.08 1016.23 1016.35 1016.46 1016.55 1016.67 1016.81 1016.97 1017.18 1017.42 1017.68 1017.97 1018.28 1018.59 1018.90 1019.22 1019.52 1019.80 1020.07 1020.31 1020.53 1020.71 1020.86 1020.99 1021.10 1021.18 1021.25 1021.30 1021.34
1014.27 1014.43 1014.57 1014.69 1014.78 1014.85 1014.92 1015.01 1015.13 1015.29 1015.49 1015.71 1015.93 1016.14 1016.32 1016.44 1016.52 1016.55 1016.56 1016.57 1016.59 1016.64 1016.74 1016.90 1017.11 1017.39 1017.70 1018.03 1018.39 1018.75 1019.09 1019.42 1019.71 1019.97 1020.19 1020.38 1020.53 1020.64 1020.73 1020.79 1020.83 1020.85 1020.86
1014.18 1014.36 1014.54 1014.71 1014.85 1014.97 1015.08 1015.19 1015.32 1015.47 1015.66 1015.87 1016.09 1016.29 1016.46 1016.57 1016.61 1016.60 1016.54 1016.46 1016.38 1016.34 1016.34 1016.42 1016.57 1016.81 1017.10 1017.45 1017.83 1018.22 1018.60 1018.95 1019.27 1019.55 1019.78 1019.97 1020.12 1020.22 1020.29 1020.32 1020.33 1020.32 1020.29
1014.02 1014.20 1014.40 1014.61 1014.80 1014.97 1015.12 1015.25 1015.38 1015.53 1015.70 1015.90 1016.10 1016.30 1016.46 1016.57 1016.61 1016.58 1016.49 1016.36 1016.22 1016.09 1016.02 1016.02 1016.11 1016.29 1016.55 1016.89 1017.26 1017.65 1018.04 1018.41 1018.75 1019.04 1019.29 1019.48 1019.63 1019.73 1019.78 1019.80 1019.78 1019.73 1019.67
1013.84 1014.00 1014.21 1014.45 1014.67 1014.87 1015.03 1015.17 1015.29 1015.42 1015.58 1015.75 1015.95 1016.14 1016.31 1016.44 1016.50 1016.48 1016.39 1016.24 1016.07 1015.90 1015.77 1015.71 1015.74 1015.86 1016.08 1016.36 1016.71 1017.08 1017.45 1017.82 1018.15 1018.45 1018.70 1018.90 1019.06 1019.16 1019.22 1019.23 1019.20 1019.13 1019.04
1013.70 1013.83 1014.02 1014.25 1014.47 1014.67 1014.84 1014.97 1015.08 1015.18 1015.30 1015.46 1015.64 1015.83 1016.02 1016.17 1016.27 1016.29 1016.22 1016.10 1015.93 1015.75 1015.59 1015.49 1015.47 1015.53 1015.68 1015.91 1016.20 1016.53 1016.86 1017.20 1017.51 1017.79 1018.05 1018.26 1018.43 1018.55 1018.63 1018.65 1018.63 1018.57 1018.47
1013.62 1013.70 1013.86 1014.06 1014.26 1014.44 1014.58 1014.68 1014.76 1014.84 1014.93 1015.05 1015.22 1015.41 1015.61 1015.80 1015.93 1016.00 1015.99 1015.90 1015.76 1015.59 1015.43 1015.31 1015.25 1015.27 1015.37 1015.54 1015.77 1016.03 1016.32 1016.61 1016.89 1017.15 1017.40 1017.61 1017.80 1017.96 1018.06 1018.12 1018.13 1018.10 1018.04
1013.59 1013.63 1013.74 1013.89 1014.05 1014.20 1014.30 1014.38 1014.42 1014.46 1014.52 1014.62 1014.76 1014.95 1015.15 1015.36 1015.53 1015.64 1015.67 1015.64 1015.54 1015.41 1015.27 1015.15 1015.08 1015.08 1015.14 1015.27 1015.44 1015.65 1015.89 1016.13 1016.37 1016.60 1016.84 1017.06 1017.27 1017.45 1017.60 1017.71 1017.78 1017.80 1017.78
1013.57 1013.58 1013.64 1013.75 1013.87 1013.98 1014.05 1014.10 1014.11 1014.12 1014.16 1014.22 1014.34 1014.51 1014.71 1014.91 1015.10 1015.23 1015.31 1015.32 1015.26 1015.17 1015.07 1014.98 1014.92 1014.93 1014.98 1015.09 1015.24 1015.42 1015.62 1015.83 1016.04 1016.25 1016.46 1016.68 1016.90 1017.11 1017.31 1017.47 1017.60 1017.69 1017.74
1013.52 1013.51 1013.55 1013.63 1013.72 1013.81 1013.87 1013.90 1013.90 1013.90 1013.91 1013.95 1014.04 1014.17 1014.34 1014.53 1014.70 1014.84 1014.92 1014.95 1014.93 1014.89 1014.83 1014.79 1014.78 1014.83 1014.91 1015.04 1015.21 1015.39 1015.58 1015.77 1015.96 1016.15 1016.35 1016.56 1016.78 1017.01 1017.23 1017.44 1017.63 1017.78 1017.90
1013.38 1013.38 1013.42 1013.51 1013.60 1013.70 1013.77 1013.80 1013.81 1013.81 1013.81 1013.83 1013.89 1013.98 1014.10 1014.24 1014.38 1014.48 1014.56 1014.59 1014.59 1014.58 1014.58 1014.60 1014.66 1014.77 1014.93 1015.12 1015.34 1015.56 1015.77 1015.97 1016.16 1016.34 1016.52 1016.72 1016.92 1017.15 1017.38 1017.61 1017.84 1018.04 1018.21
1013.11 1013.15 1013.23 1013.35 1013.49 1013.62 1013.73 1013.80 1013.84 1013.85 1013.86 1013.87 1013.89 1013.94 1014.01 1014.08 1014.16 1014.22 1014.26 1014.27 1014.28 1014.30 1014.34 1014.43 1014.58 1014.78 1015.03 1015.31 1015.61 1015.90 1016.17 1016.40 1016.60 1016.78 1016.94 1017.11 1017.28 1017.48 1017.70 1017.93 1018.17 1018.39 1018.60
1012.72 1012.82 1012.97 1013.15 1013.35 1013.55 1013.72 1013.85 1013.93 1013.98 1014.00 1014.01 1014.01 1014.01 1014.03 1014.04 1014.05 1014.05 1014.05 1014.04 1014.04 1014.08 1014.16 1014.32 1014.54 1014.83 1015.18 1015.57 1015.96 1016.33 1016.67 1016.95 1017.17 1017.34 1017.49 1017.62 1017.76 1017.91 1018.09 1018.30 1018.52 1018.75 1018.97
1012.22 1012.40 1012.62 1012.89 1013.16 1013.44 1013.68 1013.88 1014.03 1014.11 1014.16 1014.17 1014.16 1014.14 1014.11 1014.07 1014.03 1013.99 1013.94 1013.91 1013.91 1013.95 1014.07 1014.26 1014.55 1014.92 1015.35 1015.82 1016.30 1016.75 1017.15 1017.47 1017.72 1017.90 1018.02 1018.11 1018.21 1018.31 1018.44 1018.60 1018.80 1019.02 1019.24
1011.65 1011.90 1012.21 1012.56 1012.92 1013.27 1013.58 1013.84 1014.04 1014.17 1014.24 1014.27 1014.26 1014.23 1014.19 1014.13 1014.07 1014.00 1013.93 1013.89 1013.88 1013.92 1014.05 1014.27 1014.59 1015.00 1015.48 1016.01 1016.54 1017.04 1017.48 1017.84 1018.11 1018.28 1018.39 1018.45 1018.49 1018.55 1018.63 1018.76 1018.92 1019.12 1019.35
1011.06 1011.38 1011.76 1012.18 1012.60 1013.01 1013.38 1013.68 1013.92 1014.09 1014.19 1014.24 1014.26 1014.25 1014.22 1014.17 1014.11 1014.05 1013.99 1013.95 1013.93 1013.98 1014.10 1014.31 1014.63 1015.04 1015.53 1016.06 1016.60 1017.12 1017.58 1017.96 1018.23 1018.40 1018.49 1018.53 1018.54 1018.55 1018.60 1018.70 1018.84 1019.04 1019.28
1010.51 1010.88 1011.32 1011.78 1012.24 1012.68 1013.08 1013.41 1013.67 1013.86 1013.99 1014.07 1014.12 1014.15 1014.16 1014.16 1014.14 1014.11 1014.08 1014.05 1014.05 1014.08 1014.18 1014.36 1014.64 1015.00 1015.45 1015.94 1016.46 1016.96 1017.40 1017.76 1018.03 1018.20 1018.28 1018.30 1018.30 1018.30 1018.34 1018.42 1018.57 1018.78 1019.03
1010.03 1010.45 1010.91 1011.40 1011.88 1012.33 1012.72 1013.05 1013.32 1013.52 1013.67 1013.78 1013.88 1013.96 1014.03 1014.09 1014.14 1014.16 1014.17 1014.17 1014.17 1014.19 1014.25 1014.38 1014.58 1014.87 1015.23 1015.65 1016.10 1016.55 1016.95 1017.29 1017.54 1017.71 1017.79 1017.82 1017.82 1017.83 1017.87 1017.97 1018.13 1018.36 1018.64
1009.70 1010.14 1010.61 1011.09 1011.57 1011.99 1012.37 1012.69 1012.94 1013.14 1013.31 1013.45 1013.59 1013.72 1013.86 1013.98 1014.09 1014.18 1014.23 1014.26 1014.26 1014.26 1014.27 1014.33 1014.45 1014.64 1014.90 1015.23 1015.59 1015.97 1016.32 1016.62 1016.86 1017.02 1017.12 1017.16 1017.18 1017.22 1017.28 1017.40 1017.59 1017.84 1018.16
1009.51 1009.96 1010.44 1010.91 1011.36 1011.77 1012.11 1012.41 1012.65 1012.84 1013.01 1013.17 1013.34 1013.52 1013.70 1013.88 1014.03 1014.16 1014.24 1014.28 1014.28 1014.24 1014.21 1014.20 1014.24 1014.34 1014.50 1014.73 1015.02 1015.32 1015.62 1015.90 1016.12 1016.29 1016.40 1016.47 1016.52 1016.57 1016.66 1016.81 1017.02 1017.30 1017.63
1009.47 1009.93 1010.40 1010.86 1011.29 1011.68 1012.01 1012.28 1012.50 1012.69 1012.86 1013.03 1013.20 1013.39 1013.59 1013.78 1013.96 1014.09 1014.18 1014.21 1014.19 1014.13 1014.06 1013.99 1013.97 1013.99 1014.09 1014.25 1014.47 1014.72 1014.99 1015.24 1015.46 1015.63 1015.76 1015.85 1015.92 1016.00 1016.11 1016.27 1016.49 1016.77 1017.09
Thickness
5770 5769 5767 5766 5768 5767 5766 5764 5763 5761 5760 5759 5759 5758 5757 5755 5754 5753 5748 5745 5743 5742 5741 5740 5739 5738 5737 5735 5734 5733 5732 5730 5729 5728 5727 5725 5724 5724 5723 5722 5720 5719 5718
5769 5769 5768 5766 5767 5766 5764 5763 5762 5761 5760 5759 5757 5755 5754 5754 5752 5750 5748 5744 5742 5740 5740 5739 5738 5737 5736 5734 5733 5731 5730 5728 5727 5726 5725 5724 5723 5723 5722 5720 5719 5718 5717
5768 5768 5768 5767 5766 5765 5763 5762 5761 5760 5759 5757 5755 5754 5752 5751 5750 5747 5746 5744 5742 5739 5738 5737 5736 5736 5734 5733 5731 5729 5728 5726 5725 5724 5723 5722 5721 5721 5720 5718 5717 5716 5716
5769 5768 5768 5768 5766 5766 5764 5762 5761 5759 5757 5755 5753 5753 5751 5748 5747 5746 5745 5743 5742 5741 5738 5736 5734 5734 5732 5731 5729 5728 5726 5725 5723 5723 5721 5720 5719 5718 5717 5716 5716 5715 5714
5769 5769 5768 5766 5766 5766 5764 5763 5760 5758 5754 5753 5752 5750 5749 5747 5746 5745 5744 5742 5740 5739 5738 5735 5733 5732 5730 5729 5728 5727 5725 5724 5722 5721 5720 5719 5717 5716 5715 5714 5713 5712 5712
5769 5769 5768 5765 5766 5765 5762 5760 5756 5755 5754 5752 5753 5750 5748 5746 5744 5743 5742 5741 5739 5737 5736 5735 5733 5731 5728 5727 5726 5725 5724 5722 5721 5719 5718 5717 5715 5714 5713 5712 5711 5710 5709
5769 5767 5768 5765 5765 5763 5760 5759 5757 5754 5752 5752 5749 5746 5745 5745 5743 5741 5740 5739 5738 5736 5734 5732 5731 5731 5729 5725 5724 5723 5722 5721 5719 5718 5716 5715 5713 5711 5711 5709 5708 5707 5706
5769 5769 5766 5766 5764 5761 5758 5757 5755 5753 5752 5751 5748 5744 5739 5738 5739 5741 5739 5736 5736 5734 5732 5730 5728 5727 5726 5725 5722 5720 5719 5718 5717 5716 5714 5713 5711 5709 5708 5706 5705 5704 5703
5769 5767 5766 5766 5764 5762 5759 5756 5755 5752 5749 5750 5750 5745 5739 5734 5736 5736 5735 5734 5732 5731 5730 5728 5726 5724 5723 5722 5720 5717 5716 5715 5714 5713 5711 5709 5707 5706 5704 5703 5702 5701 5700
5768 5767 5765 5764 5762 5762 5759 5758 5756 5753 5750 5747 5748 5746 5744 5742 5736 5730 5731 5731 5730 5727 5726 5726 5724 5721 5720 5718 5716 5714 5712 5710 5709 5708 5707 5705 5703 5702 5701 5700 5699 5698 5697
5767 5766 5765 5763 5761 5760 5758 5756 5754 5752 5751 5748 5747 5745 5743 5741 5740 5733 5726 5725 5726 5726 5724 5722 5720 5719 5717 5714 5712 5709 5707 5705 5703 5702 5701 5700 5699 5698 5697 5696 5695 5694 5692
5768 5766 5764 5762 5761 5760 5757 5755 5754 5752 5750 5748 5747 5746 5743 5739 5737 5733 5727 5723 5721 5721 5721 5719 5717 5715 5713 5710 5707 5704 5701 5699 5698 5696 5695 5694 5693 5693 5692 5692 5690 5689 5687
5768 5765 5764 5761 5760 5758 5757 5755 5753 5752 5750 5747 5746 5745 5744 5742 5740 5735 5730 5725 5720 5719 5716 5715 5713 5711 5709 5705 5701 5698 5695 5694 5692 5690 5689 5688 5687 5686 5686 5686 5685 5683 5681
5768 5765 5762 5760 5759 5757 5757 5755 5754 5752 5749 5747 5746 5744 5743 5742 5740 5737 5731 5725 5718 5715 5713 5710 5709 5706 5704 5701 5696 5693 5691 5687 5685 5684 5682 5681 5681 5679 5679 5678 5677 5675 5673
5767 5764 5761 5760 5758 5756 5754 5753 5752 5749 5748 5747 5746 5744 5742 5741 5739 5737 5733 5728 5720 5713 5708 5706 5703 5701 5698 5695 5691 5690 5686 5681 5679 5677 5676 5675 5674 5673 5671 5670 5669 5667 5665
5765 5762 5761 5759 5757 5755 5753 5751 5750 5748 5745 5744 5743 5741 5739 5740 5737 5735 5732 5729 5724 5718 5709 5704 5700 5697 5693 5691 5686 5684 5680 5676 5673 5671 5669 5668 5666 5665 5664 5662 5661 5659 5657
5764 5761 5759 5757 5755 5753 5751 5749 5748 5746 5744 5742 5741 5739 5736 5735 5734 5733 5730 5726 5722 5717 5708 5702 5698 5693 5688 5685 5681 5678 5675 5672 5668 5665 5663 5661 5659 5658 5656 5654 5652 5650 5649
5764 5761 5759 5756 5754 5752 5750 5748 5746 5744 5742 5740 5738 5736 5734 5733 5730 5729 5726 5722 5718 5713 5708 5698 5693 5689 5684 5680 5677 5674 5671 5669 5664 5659 5656 5654 5652 5650 5648 5646 5644 5642 5640
5763 5761 5758 5755 5753 5751 5749 5747 5745 5742 5741 5739 5736 5734 5731 5729 5726 5724 5721 5718 5715 5711 5705 5698 5691 5685 5681 5677 5673 5670 5667 5662 5660 5655 5651 5647 5645 5642 5640 5638 5635 5633 5632
5762 5759 5757 5754 5752 5750 5747 5745 5743 5740 5738 5736 5734 5732 5729 5727 5723 5720 5717 5713 5710 5705 5700 5696 5690 5684 5678 5673 5670 5667 5662 5659 5656 5652 5647 5643 5639 5636 5633 5630 5628 5626 5624
5762 5759 5755 5753 5751 5749 5747 5744 5741 5739 5735 5733 5730 5728 5726 5722 5718 5716 5715 5710 5706 5702 5697 5693 5687 5681 5675 5669 5666 5664 5660 5655 5650 5648 5644 5640 5637 5633 5629 5624 5621 5618 5616
5760 5756 5753 5751 5749 5748 5742 5739 5737 5736 5732 5729 5726 5724 5722 5718 5713 5709 5706 5703 5700 5697 5693 5689 5684 5678 5671 5667 5663 5660 5656 5652 5647 5643 5640 5636 5633 5630 5626 5621 5615 5611 5608
5757 5754 5751 5749 5746 5742 5737 5735 5732 5732 5730 5727 5723 5721 5720 5717 5711 5707 5701 5696 5692 5689 5686 5684 5680 5674 5669 5665 5658 5655 5650 5647 5643 5639 5635 5632 5629 5625 5621 5615 5609 5605 5601
5755 5752 5749 5747 5743 5739 5734 5730 5728 5728 5727 5723 5721 5718 5714 5711 5708 5703 5699 5694 5690 5685 5681 5678 5675 5670 5666 5660 5654 5650 5645 5641 5637 5634 5630 5628 5624 5620 5616 5610 5604 5600 5596
5752 5749 5746 5743 5740 5736 5730 5727 5723 5724 5722 5719 5717 5714 5711 5706 5700 5695 5693 5689 5684 5680 5674 5669 5665 5661 5656 5652 5648 5646 5641 5638 5634 5631 5627 5624 5620 5616 5611 5607 5600 5595 5591
5748 5746 5743 5740 5738 5734 5728 5723 5719 5722 5719 5717 5713 5709 5703 5700 5694 5690 5688 5685 5679 5675 5671 5665 5660 5655 5651 5647 5642 5640 5638 5635 5632 5628 5624 5619 5616 5611 5607 5604 5598 5592 5587